Hovedside
METAR-TAF:

METAR-TAF

Lufthavner :

Ørsta-Volda, Norge

Ørsta/Volda lufthamn

breddegrad: 62-11N, lengdegrad: 006-04E, høyde over havet: 7 m

Gjeldene værobservasjon

Denne rapporten ble laget for 1 time og 45 minutter siden, klokken 20:50 UTC
Vind 2 kt fra skiftende retning
Temperatur 15°C
Luftfuktighet 88%
Trykk 1015 hPa
Sikt 10 km eller mer
ingen skyer under 1500 m og ingen bygeskyer

METAR: ENOV 242050Z VRB02KT CAVOK 15/13 Q1015 RMK WIND 2175FT 12011KT

Tid: 00:35 (22:35 UTC)


TAF: fraværende

Værobservasjoner og værvarsel for over 4000 flyplasser (METAR- og TAF-rapporter).

Tilgjengelige stasjoner er representert av de røde og gule prikkene på kartet.

Hold musepekeren over prikken for å se navnet på stasjonen.

Klikk så for å se værobservasjoner og -varsler.

For å forandre kartet kan du klikke på den grønne knappen med svart kryss for å zoome inn, på den grønne knappen med strek for å zoome ut, eller på de grønne pilene for å se tilstøtende kart.


METAR-TAF: